This demonstration page uses our WeatherBlox Daily Observations layout. Learn more.

Hourly Observations for June 24, 2016

Temp ( °F °C ) Dew Point ( °F °C ) Humidity (%) Winds ( mph kmh ) Pressure ( in mb ) Visibility ( mi km ) Precip ( " mm )
12:15 am 00:15 Clear 68 20.2 60 15.6 75 75 SE 6 9 29.94 1014 10 16.09344 0 0
12:35 am 00:35 Clear 68 20 60 15.6 76 76 SE 6 9 29.94 1014 10 16.09344 0 0
12:55 am 00:55 Clear 67 19.3 60 15.6 79 79 SE 5 7 29.97 1015 10 16.09344 0 0
1:15 am 01:15 Clear 68 20 60 15.5 75 75 Calm 29.94 1014 10 16.09344 0 0
1:35 am 01:35 Clear 68 20.1 59 15.1 73 73 SE 3 6 29.91 1013 10 16.09344 0 0
1:55 am 01:55 Clear 67 19.5 60 15.5 78 78 SE 5 7 29.91 1013 10 16.09344 0 0
2:15 am 02:15 Clear 66 19.1 60 15.8 81 81 E 3 6 29.94 1014 10 16.09344 0 0
2:35 am 02:35 Clear 66 19 61 16 83 83 E 6 9 29.97 1015 10 16.09344 0 0
2:55 am 02:55 Clear 66 19 61 16 83 83 ESE 12 19 29.94 1014 10 16.09344 0 0
3:15 am 03:15 Clear 67 19.3 60 15.6 79 79 ESE 9 15 29.94 1014 10 16.09344 0 0
3:35 am 03:35 Clear 67 19.5 59 15.1 76 76 SE 8 13 29.88 1012 10 16.09344 0 0
3:55 am 03:55 Clear 67 19.3 59 15.2 77 77 SE 9 15 29.88 1012 10 16.09344 0 0
4:15 am 04:15 Clear 67 19.5 60 15.5 78 78 SSE 8 13 29.88 1012 10 16.09344 0 0
4:35 am 04:35 Clear 67 19.3 60 15.7 80 80 SE 12 19 29.88 1012 10 16.09344 0 0
4:55 am 04:55 Clear 67 19.3 60 15.7 80 80 SSE 10 17 29.85 1011 10 16.09344 0 0
5:15 am 05:15 Clear 67 19.2 61 16 82 82 S 8 13 29.88 1012 10 16.09344 0 0
5:35 am 05:35 Clear 66 18.7 61 16 84 84 SSE 7 11 29.91 1013 10 16.09344 0 0
5:55 am 05:55 Clear 65 18.2 61 16 87 87 SE 7 11 29.91 1013 10 16.09344 0 0
6:15 am 06:15 Sunny 64 18 61 16 88 88 Calm 29.91 1013 10 16.09344 0 0
6:35 am 06:35 Sunny 64 17.8 61 16.1 90 90 SE 5 7 29.91 1013 10 16.09344 0 0
6:55 am 06:55 Sunny 65 18.5 61 16.3 87 87 SSE 5 7 29.91 1013 10 16.09344 0 0
7:15 am 07:15 Sunny 66 18.9 62 16.6 87 87 SSE 3 6 29.91 1013 10 16.09344 0 0
7:35 am 07:35 Sunny 67 19.5 62 16.9 85 85 SSE 6 9 29.91 1013 10 16.09344 0 0
7:55 am 07:55 Sunny 68 20.1 63 17.3 84 84 SSE 7 11 29.91 1013 10 16.09344 0 0
8:15 am 08:15 Sunny 69 20.5 63 17.4 82 82 S 8 13 29.91 1013 10 16.09344 0 0
8:35 am 08:35 Sunny 70 21 64 17.6 81 81 SSE 7 11 29.91 1013 10 16.09344 0 0
8:55 am 08:55 Sunny 72 22 65 18.2 79 79 S 9 15 29.88 1012 10 16.09344 0 0
9:15 am 09:15 Sunny 74 23.2 65 18.5 75 75 S 8 13 29.85 1011 10 16.09344 0 0
9:35 am 09:35 Sunny 76 24.5 65 18.5 69 69 SSW 7 11 29.85 1011 10 16.09344 0 0
9:55 am 09:55 Sunny 78 25.4 65 18.2 64 64 SW 6 9 29.85 1011 10 16.09344 0 0
10:15 am 10:15 Sunny 79 26 65 18.2 62 62 SW 5 7 29.85 1011 10 16.09344 0 0
10:35 am 10:35 Sunny 80 26.6 64 17.7 58 58 SSW 7 11 29.83 1010 10 16.09344 0 0
10:55 am 10:55 Sunny 82 27.6 63 17.4 54 54 S 10 17 29.83 1010 10 16.09344 0 0
11:15 am 11:15 Sunny 82 27.9 63 17.3 53 53 S 12 19 29.83 1010 10 16.09344 0 0
11:35 am 11:35 Sunny 82 28 63 17.4 53 53 S 14 22 29.83 1010 10 16.09344 0 0
11:55 am 11:55 Sunny 83 28.3 64 17.5 52 52 S 14 22 29.83 1010 10 16.09344 0 0
12:15 pm 12:15 Sunny 84 28.8 63 17.3 50 50 S 16 26 29.83 1010 10 16.09344 0 0
12:35 pm 12:35 Sunny 85 29.2 63 17.2 48 48 S 15 24 29.83 1010 10 16.09344 0 0
12:55 pm 12:55 Sunny 84 29.1 64 17.5 50 50 S 17 28 29.8 1009 10 16.09344 0 0
1:15 pm 13:15 Sunny 85 29.5 64 17.7 49 49 S 14 22 29.8 1009 10 16.09344 0 0
1:35 pm 13:35 Sunny 86 29.8 64 17.6 48 48 S 14 22 29.8 1009 10 16.09344 0 0
1:55 pm 13:55 Sunny 86 29.9 64 17.6 48 48 S 15 24 29.8 1009 10 16.09344 0 0
2:15 pm 14:15 Sunny 87 30.6 63 17.3 45 45 S 14 22 29.77 1008 10 16.09344 0 0
2:35 pm 14:35 Sunny 88 31 64 17.5 44 44 SSW 13 20 29.74 1007 10 16.09344 0 0
2:55 pm 14:55 Sunny 88 31.1 63 17.3 44 44 SSE 13 20 29.74 1007 10 16.09344 0 0
3:15 pm 15:15 Sunny 89 31.6 64 17.6 43 43 S 12 19 29.74 1007 10 16.09344 0 0
3:35 pm 15:35 Sunny 89 31.5 63 17 42 42 SSE 16 26 29.74 1007 10 16.09344 0 0
3:55 pm 15:55 Sunny 89 31.5 62 16.8 41 41 SSE 14 22 29.74 1007 10 16.09344 0 0
4:15 pm 16:15 Sunny 89 31.7 62 16.4 40 40 SSE 15 24 29.74 1007 10 16.09344 0 0
4:35 pm 16:35 Sunny 90 32 63 17.1 41 41 S 15 24 29.71 1006 10 16.09344 0 0
4:55 pm 16:55 Sunny 90 32 63 17.2 41 41 SSE 15 24 29.71 1006 10 16.09344 0 0
5:15 pm 17:15 Sunny 90 32 62 16.4 39 39 SSE 13 20 29.71 1006 10 16.09344 0 0
5:35 pm 17:35 Sunny 90 32.2 63 17.2 41 41 SSE 16 26 29.68 1005 10 16.09344 0 0
5:55 pm 17:55 Sunny 90 32.2 63 17.4 41 41 SSE 15 24 29.68 1005 10 16.09344 0 0
6:15 pm 18:15 Sunny 90 32.3 64 17.7 42 42 S 15 24 29.68 1005 10 16.09344 0 0
6:35 pm 18:35 Sunny 90 32.2 64 17.6 42 42 SSE 13 20 29.68 1005 10 16.09344 0 0
6:55 pm 18:55 Sunny 90 32 64 17.7 42 42 SSE 15 24 29.68 1005 10 16.09344 0 0
7:15 pm 19:15 Sunny 89 31.5 65 18.3 45 45 SSE 16 26 29.68 1005 10 16.09344 0 0
7:35 pm 19:35 Sunny 88 31 66 19 49 49 SSE 15 24 29.68 1005 10 16.09344 0 0
7:55 pm 19:55 Sunny 87 30.3 67 19.6 53 53 SSE 15 24 29.68 1005 10 16.09344 0 0
8:15 pm 20:15 Sunny 85 29.7 67 19.6 55 55 SSE 12 19 29.68 1005 10 16.09344 0 0
8:35 pm 20:35 Sunny 85 29.2 67 19.7 57 57 SSE 12 19 29.68 1005 10 16.09344 0 0
8:55 pm 20:55 Sunny 84 28.7 67 19.7 58 58 SSE 14 22 29.71 1006 10 16.09344 0 0
9:15 pm 21:15 Clear 82 28 68 20 62 62 SSE 12 19 29.71 1006 10 16.09344 0 0
9:35 pm 21:35 Clear 82 27.7 68 20 63 63 SSE 13 20 29.71 1006 10 16.09344 0 0
9:55 pm 21:55 Clear 82 27.5 68 19.9 63 63 SSE 15 24 29.71 1006 10 16.09344 0 0
10:15 pm 22:15 Clear 81 27.3 68 20 64 64 SSE 12 19 29.71 1006 10 16.09344 0 0
10:35 pm 22:35 Clear 81 27 69 20.5 68 68 SSE 13 20 29.74 1007 10 16.09344 0 0
10:55 pm 22:55 Clear 80 26.6 70 21 71 71 SSE 15 24 29.74 1007 10 16.09344 0 0
11:15 pm 23:15 Clear 79 26.3 70 21.1 73 73 SSE 13 20 29.74 1007 10 16.09344 0 0
11:35 pm 23:35 Clear 79 26 70 21.1 74 74 SSE 12 19 29.74 1007 10 16.09344 0 0
11:55 pm 23:55 Clear 78 25.8 70 21.1 75 75 SSE 13 20 29.74 1007 10 16.09344 0 0

Powered by AerisWeather